sat.trackr.live / text

‹ back to catalog

STARLINK-3644

NORAD 51987 · 2022-025AH

PAYLOAD ACTIVE UNKNOWN

§ Identity

Operator
Country
US
Launch date
2022-03-09
Launch site
AFETR
Launch vehicle
Mass (kg)
RCS (m²)

Purposes: comms

External: N2YO · Heavens-Above · Gunter

§ Orbital elements

Epoch: 2026-09-20T04:29:04.120800Z

Period
93.85 min
Inclination
53.1588°
Eccentricity
0.0001355
Mean motion
15.34390145 rev/d
Perigee alt
461.8 km
Apogee alt
463.7 km
Semi-major
6,840.9 km
B*
1.8437e-5
RAAN
229.1033°
Arg perigee
98.6876°
Mean anomaly
261.4280°
Rev number
25,065

§ Raw data

STARLINK-36441 51987U 22025AH  26263.18685325  .00000246  00000+0  18437-4 0  99962 51987  53.1588 229.1033 0001355  98.6876 261.4280 15.34390145250656

JSON: /api/v1/satellites/51987 · /tle

For live sub-satellite position, see the globe view (requires WebGL).

§ Visibility from observer

Set your observer location to see the next 7 days of passes ≥ 10°. The values pass through the URL so the page stays shareable.

No JS? Fill the form by hand. The geolocation button needs JavaScript.